sat.trackr.live / text

‹ back to catalog

STARLINK-31828

NORAD 59767 · 2024-091Q

PAYLOAD ACTIVE UNKNOWN

§ Identity

Operator
Country
US
Launch date
2024-05-14
Launch site
AFWTR
Launch vehicle
Mass (kg)
RCS (m²)

Purposes: comms

External: N2YO · Heavens-Above · Gunter

§ Orbital elements

Epoch: 2026-05-25T01:56:01.832928Z

Period
94.01 min
Inclination
53.1616°
Eccentricity
0.0001135
Mean motion
15.31707710 rev/d
Perigee alt
469.9 km
Apogee alt
471.5 km
Semi-major
6,848.9 km
B*
3.9367e-5
RAAN
31.8153°
Arg perigee
94.7871°
Mean anomaly
265.3260°
Rev number
11,470

§ Raw data

STARLINK-318281 59767U 24091Q   26145.08057677  .00000857  00000+0  39367-4 0  99992 59767  53.1616  31.8153 0001135  94.7871 265.3260 15.31707710114704

JSON: /api/v1/satellites/59767 · /tle

For live sub-satellite position, see the globe view (requires WebGL).

§ Visibility from observer

Set your observer location to see the next 7 days of passes ≥ 10°. The values pass through the URL so the page stays shareable.

No JS? Fill the form by hand. The geolocation button needs JavaScript.